Location: Mococo
(38.0255°N, 122.1161°W)
Time: 06:57:20
(UTC+00:00)

Cosmos 1025 Rocket - Pass Details

Date: 26 May 2026
Orbit: 587 x 608 km, 82.5° (Epoch: 10 June)

Event Time Altitude Azimuth Distance (km) Brightness Sun altitude
Rises 12:04:59 0° 150° (SSE) 2,817 6.4 -8.4°
Reaches altitude 10° 12:07:40 10° 133° (SE) 1,925 5.8 -8.0°
Maximum altitude 12:10:40 19° 88° (E) 1,437 5.8 -7.5°
Drops below altitude 10° 12:13:43 10° 42° (NE) 1,945 7.2 -7.0°
Sets 12:16:26 0° 25° (NNE) 2,857 7.6 -6.6°
